Regional Weather Roundup
Issued by NWS

Home | Current Version | Previous Version | Text Only | Print | Product List | Glossary On
Versions: 1 2 3 4 5 6 7 8 9 10 11 12 13 14 15 16 17 18 19 20 21 22 23 24 25 26 27 28 29 30 31 32 33 34 35 36 37 38 39 40 41 42 43 44 45 46 47 48 49 50
000
ASUS43 KIND 241000
RWRIN

WEATHER ROUNDUP FOR INDIANA
NATIONAL WEATHER SERVICE INDIANAPOLIS IN
600 AM EDT SAT JUN 24 2017

NOTE: "FAIR" INDICATES FEW OR NO CLOUDS BELOW 12,000 FEET WITH NO
SIGNIFICANT WEATHER AND/OR OBSTRUCTIONS TO VISIBILITY.

* - STATION DOES NOT REPORT WEATHER SUCH AS PRECIPITATION OR FOG.

+ - STATION NOT QUALITY CONTROLLED BY THE NATIONAL WEATHER SERVICE.
    USE DATA WITH CAUTION...ESPECIALLY DEWPOINT AND RELATIVE
    HUMIDITY OBSERVATIONS.

INZ001>003-010>013-019-020-241100-
NORTHWEST INDIANA

CITY           SKY/WX    TMP DP  RH WIND       PRES   REMARKS
GARY /AIRPORT/ CLEAR     63  55  77 W7        29.90R
KNOX *+        CLEAR     59  50  72 W7        29.89R
MICHIGAN CITY+ CLEAR     63  55  77 NW7       29.89R
MONTICELLO +   CLEAR     60  57  89 W6        29.91R

$$

LMZ046-743>745-241100-
SOUTHERN LAKE MICHIGAN

STATION/POSITION TIME  TEMP    WIND        PRES    WAVE
                       AIR SEA DIR/SP/G            HT
                 (UTC) (F)     (DEG/KT/KT) (MB)    (FT)
BURNS HARBOR     0940   66     280/ 11/ 14 1012.5R
MICHIGAN CITY    0930   66     280/ 19/ 21   N/A
5NW MICH CITY    0950   66 68  300/ 16/ 21   N/A     4

$$

INZ004-005-014>016-021>024-241100-
NORTH CENTRAL INDIANA

CITY           SKY/WX    TMP DP  RH WIND       PRES   REMARKS
GOSHEN         CLEAR     58  53  84 W6        29.86S
SOUTH BEND     CLEAR     57  54  89 W8        29.88R

$$

INZ006>009-017-018-025>027-241100-
NORTHEAST INDIANA

CITY           SKY/WX    TMP DP  RH WIND       PRES   REMARKS
FORT WAYNE     PTCLDY    63  56  78 W8        29.87R
KENDALLVILLE + CLEAR    N/A N/A N/A NW3       29.87R

$$

INZ028-029-035-036-043>045-051>053-241100-
WEST CENTRAL INDIANA

CITY           SKY/WX    TMP DP  RH WIND       PRES   REMARKS
CRAWFORDSVL +  CLEAR     57  57 100 W5        29.93R
LAFAYETTE      PTCLDY    58  56  93 W5        29.92R
TERRE HAUTE    CLOUDY    62  55  77 W5        29.95R

$$

INZ030>032-037>040-046>048-054>057-064-065-241100-
CENTRAL INDIANA

CITY           SKY/WX    TMP DP  RH WIND       PRES   REMARKS
GREENWOOD *+   PTCLDY    62  56  82 W3        29.93R
INDIANAPOLIS   CLOUDY    61  56  83 NW9       29.92R
-EAGLE CREEK   CLOUDY    63  56  78 NW10      29.91R
KOKOMO +       PTCLDY    61  57  87 W8        29.92R
MT COMFORT *+  PTCLDY    61  57  88 W8        29.91S
SHELBYVILLE    CLEAR     63  57  81 W6        29.91R

$$

INZ033-034-041-042-049-050-058-059-241100-
EAST CENTRAL INDIANA

CITY           SKY/WX    TMP DP  RH WIND       PRES   REMARKS
MUNCIE         PTCLDY    63  57  81 W8        29.90R

$$

INZ060-061-067>069-081>083-085>088-241100-
SOUTHWEST INDIANA

CITY           SKY/WX    TMP DP  RH WIND       PRES   REMARKS
EVANSVILLE     PTCLDY    65  59  81 W3        29.98R
HUNTINGBURG *+ PTCLDY    65  60  84 NW5       29.97R

$$

INZ062-063-066-070>080-084-089>092-241100-
SOUTH CENTRAL AND SOUTHEAST INDIANA

CITY           SKY/WX    TMP DP  RH WIND       PRES   REMARKS
BLOOMINGTON    CLOUDY    62  56  80 NW5       29.95R
MADISON *+     CLEAR     63  63 100 CALM      29.95R
SEYMOUR +      PTCLDY    64  63  94 W5        29.93R

$$





USA.gov is the U.S. government's official web portal to all federal, state and local government web resources and services.